Flag for Germany Weather past 2 weeks in Berlin, Berlin, Germany

Now
53 °F

Cool.


Feels Like: 52 °F
Forecast: 49 / 65 °F
Wind: 5 mph from Northeast

Location: Berlin-Tempelhof


UV Index: 0 (Low)

Visibility: N/A


Pressure: 29.91 "Hg

Humidity: 80%

Dew point: 47 °F

Location of BerlinLocation

Historic Weather in Berlin

°F

Berlin temperature yesterday

Maximum temperature yesterday: 69 °F (at 5:00 PM)
Minimum temperature yesterday: 37 °F (at 6:00 AM)
Average temperature yesterday: 53 °F

Past Weeks' High & Low Weather Summary

 TemperatureHumidityPressure
High69 °F (Apr 19, 5:00 PM)97% (Apr 19, 7:00 AM)30.45 "Hg (Apr 19, 7:00 AM)
Low35 °F (Apr 16, 7:00 AM)30% (Apr 16, 7:00 PM)29.69 "Hg (Apr 14, 9:00 AM)
Average51 °F71%30.02 "Hg
* Reported Apr 5 6:00 AM — Apr 20 6:00 AM, Berlin, Weather by CustomWeather, © 2014

Note: Actual official high and low records may vary slightly from our data, if they occured in-between our weather recording intervals... More about our weather records

Advertising

Historic Weather Conditions — Data for Previous 24 hours

 ConditionsComfort  
Time TempWeatherWind HumidityBarometerVisibility
6:00 AM
Apr 20
53 °FCool.5 mph80%29.91 "HgN/A
5:00 AM53 °FCool.5 mph79%29.92 "HgN/A
4:00 AM54 °FCool.5 mph78%29.93 "HgN/A
3:00 AM54 °FCool.3 mph79%29.93 "HgN/A
2:00 AM56 °FCool.5 mph78%29.94 "HgN/A
1:00 AM56 °FCool.6 mph76%29.96 "HgN/A
12:00 AM58 °FCool.6 mph75%29.97 "HgN/A
11:00 PM
Apr 19
58 °FCool.6 mph76%29.97 "HgN/A
10:00 PM59 °FCool.6 mph74%29.97 "HgN/A
9:00 PM61 °FCool.6 mph71%29.97 "HgN/A
8:00 PM64 °FMild.6 mph67%29.96 "HgN/A
7:00 PM67 °FMild.7 mph58%29.96 "HgN/A
6:00 PM68 °FMild.7 mph56%29.96 "HgN/A
5:00 PM69 °FMild.8 mph54%29.98 "HgN/A
4:00 PM68 °FMild.7 mph55%29.99 "HgN/A
3:00 PM67 °FMild.7 mph62%30.01 "HgN/A
2:00 PM65 °FMild.8 mph63%30.03 "HgN/A
1:00 PM63 °FMild.7 mph69%30.04 "HgN/A
12:00 PM57 °FCool.6 mph74%30.06 "HgN/A
11:00 AM51 °FCool.6 mph77%30.08 "HgN/A
10:00 AM46 °FCool.6 mph85%30.09 "HgN/A
9:00 AM44 °FQuite cool.3 mph90%30.09 "HgN/A
8:00 AM40 °FChilly.2 mph97%30.09 "HgN/A
7:00 AM37 °FChilly.3 mph97%30.07 "HgN/A
6:00 AM37 °FChilly.3 mph96%30.07 "HgN/A
Weather by CustomWeather, © 2014

See weather overview